Tracking 20092 objects as of 14-Dec-2019
HD Live streaming from Space Station
objects crossing your sky now

HELIOS-2A

Track HELIOS-2A now!
10-day predictions
HELIOS-2A is classified as:


NORAD ID: 28492
Int'l Code: 2004-049A
Perigee: 685.9 km
Apogee: 690.1 km
Inclination: 98.1 °
Period: 98.4 minutes
Semi major axis: 7059 km
RCS: Unknown
Launch date: December 18, 2004
Source: France (FR)
Launch site: FRENCH GUIANA (FRGUI)

Optical reconnaissance; independent military intelligence capability for the EU.
aabbcc
Your satellite tracking list
Your tracking list is empty




NASA's NSSDC Master Catalog

Two Line Element Set (TLE):
1 28492U 04049A   19275.12506917 0.00000020  00000-0  38371-5 0    09
2 28492  98.1461 209.9014 0003000  33.6693 326.3306 14.63817725    01
Source of the keplerian elements: McCants